Volver al catálogo

ARIANE 5 R/B

ActivoHEO
NORAD 37266·ROCKET BODY·🇫🇷 France

Lanzado Dec 29, 2010 desde Guiana Space Centre

Loading…

Próximos Pases (próximas 24 horas)

TLE

ActualizadoSource: Space-Track

Época: Sep 14, 2026, 10:24 UTC

1 37266U 10070C   26257.43381879  .00000944  00000-0  36805-3 0  9999
2 37266   3.2690 178.3138 7037728 263.5452  19.2038  2.58126522139210

Sigue ARIANE 5 R/B en tiempo real con AllMySat

Download on the App Store